Regional Weather Roundup
Issued by NWS

Home | Current Version | Previous Version | Graphics & Text | Print | Product List | Glossary On
Versions: 1 2 3 4 5 6 7 8 9 10 11 12 13 14 15 16 17 18 19 20 21 22 23 24 25 26 27 28 29 30 31 32 33 34 35 36 37 38 39 40 41 42 43 44 45 46 47 48 49 50
000
ASUS43 KLOT 021712
RWRIL

ILLINOIS REGIONAL WEATHER ROUNDUP
NATIONAL WEATHER SERVICE CHICAGO/ROMEOVILLE IL
1200 PM CDT SUN AUG 02 2015

NOTE: "FAIR" INDICATES FEW OR NO CLOUDS BELOW 12,000 FEET WITH NO
SIGNIFICANT WEATHER AND/OR OBSTRUCTIONS TO VISIBILITY.

* THESE STATIONS ARE NOT UNDER NWS QUALITY CONTROL. THEY ALSO MAY NOT
  REPORT WEATHER SUCH AS PRECIPITATION OR FOG.

ILZ001-002-007-009-015-016-024-021800-
NORTHWEST ILLINOIS

CITY           SKY/WX    TMP DP  RH WIND       PRES   REMARKS
MOLINE         SUNNY     86  67  52 SW14G21   29.81F HX  89
STERLING*      SUNNY     86  70  58 W13G18    29.78F HX  90
SAVANNA*       MOSUNNY   85  67  54 SW9       29.79F HX  88
$$

ILZ003-004-008-010-011-017-018-021800-
NORTH CENTRAL ILLINOIS

CITY           SKY/WX    TMP DP  RH WIND       PRES   REMARKS
ROCKFORD       MOSUNNY   87  66  49 SW17G26   29.79F HX  89
FREEPORT*      SUNNY     84  69  59 SW16G24   29.81S HX  87
ROCHELLE*      SUNNY     84  69  59 SW17G23   29.82S HX  88
DE KALB*       SUNNY     85  68  55 SW20G26   29.82F HX  88
PERU*          SUNNY     86  65  48 SW21G28   29.83F HX  87
$$

ILZ005-006-012>014-019>023-021800-
NORTHEAST ILLINOIS

CITY           SKY/WX    TMP DP  RH WIND       PRES   REMARKS
CHICAGO-OHARE  MOSUNNY   88  63  43 SW20G30   29.79F HX  89
CHICAGO-MIDWAY MOSUNNY   90  62  39 W24G30    29.81F HX  90
AURORA         SUNNY     87  62  43 SW15G26   29.82F HX  87
LANSING*       SUNNY     89  65  45 SW21G26   29.83F HX  91
JOLIET*        SUNNY     89  65  44 W15       29.84F HX  90
WAUKEGAN       SUNNY     87  67  51 SW21G31   29.75F HX  90
DUPAGE AIRPORT SUNNY     87  63  44 SW20G30   29.81F HX  88
KANKAKEE*      SUNNY     89  70  54 SW17G24   29.87S HX  94
WHEELING       SUNNY     89  62  40 SW18G29   29.79F HX  89
MORRIS*        SUNNY     86  67  54 SW18G24   29.82F HX  89
ROMEOVILLE*    SUNNY     86  62  44 SW14G24   29.83F HX  86
NORTHERLY ISL    N/A     87  59  38 W13         N/A  HX  86
$$

LMZ740>746-021800-
SOUTHERN LAKE MICHIGAN

STATION/POSITION SKY/WX   TEMP    WIND        PRES    VSBY  WAVE
                          AIR SEA DIR/SP/G                  HT/PER
                          (F)     (DEG/KT/KT) (MB)    (MI)  (FT/S)
HARRISON CRIB              83     240/ 23/ 32   N/A
BURNHAM HARBOR             87     260/ 10/ 18   N/A
CALUMET HARBOR             85     230/ 13/ 22   N/A
BURNS HARBOR               84     210/ 19/ 25 1010.2F
MICHIGAN CITY              81     190/ 18/ 23   N/A
MICHIGAN CITY 6N           79 74  240/ 12/ 16   N/A           2/ 3
ST. JOSEPH                 76 74  250/ 10/ 12   N/A           2/ 3
$$

ILZ025>027-034>036-040-047-049-050-058-095>099-021800-
WEST-CENTRAL ILLINOIS

CITY           SKY/WX    TMP DP  RH WIND       PRES   REMARKS
QUINCY         PTSUNNY   86  71  60 SW10      29.90S HX  91
GALESBURG*     MOSUNNY   84  71  65 SW12G18   29.86F HX  89
MACOMB*        PTSUNNY   85  72  63 SW12      29.89F HX  91
JACKSONVILLE*  MOSUNNY   88  73  61 SW8       29.91S HX  96
PITTSFIELD*    MOSUNNY   88  72  58 W8        29.92S HX  94
$$

ILZ028>032-037-038-041>044-048-051>054-059>061-021800-
CENTRAL ILLINOIS

CITY           SKY/WX    TMP DP  RH WIND       PRES   REMARKS
PONTIAC        MOSUNNY   85  71  62 SW14      29.88S HX  90
BLOOMINGTON    PTSUNNY   86  72  62 SW14      29.91F HX  92
DECATUR        MOSUNNY   86  69  56 SW14      29.93S HX  90
PEORIA         PTSUNNY   89  70  53 SW14      29.87F HX  94
LACON*         MOSUNNY   85  68  56 SW10G21   29.84F HX  88
LINCOLN*       PTSUNNY   87  69  55 SW8       29.89F HX  90
SPRINGFIELD    PTSUNNY   82  74  76 S3        29.91F THUNDER HX  88
TAYLORVILLE    MOSUNNY   86  72  62 SW9       29.93S HX  92
$$

ILZ033-039-045-046-055>057-062-063-021800-
EAST-CENTRAL ILLINOIS

CITY           SKY/WX    TMP DP  RH WIND       PRES   REMARKS
CHAMPAIGN      SUNNY     86  73  65 SW13G21   29.92F HX  93
DANVILLE*      MOSUNNY   83  73  70 SW12G20   29.89F HX  89
RANTOUL*       SUNNY     87  73  63 SW13      29.90F HX  95
MATTOON        SUNNY     84  68  58 SW10      29.93F HX  87
PARIS*         SUNNY     86  73  64 SW9G17    29.94F HX  93
$$

ILZ079-100>102-021800-
SOUTHWEST ILLINOIS

CITY           SKY/WX    TMP DP  RH WIND       PRES   REMARKS
ALTON          MOSUNNY   88  70  55 SW9       29.94F HX  92
BELLEVILLE     SUNNY     89  74  60 SW10      29.93F HX  98
CAHOKIA*       SUNNY     91  70  49 VRB5      29.93F HX  96
SPARTA*        SUNNY     87  73  61 SW7       29.97S HX  94
$$

ILZ064>066-069>071-074>076-080>082-084>086-088>090-092>094-021800-
SOUTH-CENTRAL ILLINOIS

CITY           SKY/WX    TMP DP  RH WIND       PRES   REMARKS
CARBONDALE     SUNNY     87  72  60 S8        29.97F HX  93
CAIRO*         SUNNY     85  73  66 S7        29.97F HX  91
EFFINGHAM*     SUNNY     88  67  49 SW8       29.96S HX  90
MARION         MOSUNNY   88  72  58 SW12      29.98F HX  94
MT. VERNON     SUNNY     90  72  55 SW12      29.97F HX  96
CENTRALIA*     SUNNY     88  69  54 SW7       29.96S HX  92
SALEM*         SUNNY     89  69  50 SW10      29.96S HX  93
METROPOLIS*    SUNNY     85  71  63 S3        29.99F HX  90
$$

ILZ067-068-072-073-078-083-087-091-021800-
SOUTHEAST ILLINOIS

CITY           SKY/WX    TMP DP  RH WIND       PRES   REMARKS
LAWRENCEVILLE  SUNNY     87  67  51 SW10      29.97S HX  90
FLORA*         SUNNY     86  70  59 S9        29.96F HX  91
FAIRFIELD*     SUNNY     86  72  63 S10       29.95F HX  92
HARRISBURG*    SUNNY     84  68  58 SW9       29.99F HX  87
ROBINSON*      SUNNY     85  69  59 SW9       29.96F HX  89
CARMI*         SUNNY     83  65  54 CALM      29.97F HX  85
$$

ABBREVIATIONS USED IN REMARKS
   TC - TEMPERATURE IN CELSIUS
  WCI - WIND CHILL INDEX
   HX - HEAT INDEX
  VSB - VISIBILITY
$$



USA.gov is the U.S. government's official web portal to all federal, state and local government web resources and services.